Weather History for Rawlins, WY

Change the Weather History Date:

Tuesday, March 19, 2013

  Actual Average Record
Temperature  
Mean Temperature 28 °F 33 °F  
Max Temperature 44 °F 45 °F 65 °F (2004)
Min Temperature 12 °F 22 °F -8 °F (1965)
Degree Days  
Heating Degree Days 37 32  
Month to date heating degree days 579 654  
Since 1 July heating degree days 6180 6611  
Cooling Degree Days 0 0  
Month to date cooling degree days 0 0  
Year to date cooling degree days 0 0  
Moisture  
Dew Point -3 °F    
Average Humidity 38    
Maximum Humidity 67    
Minimum Humidity 8    
Precipitation  
Precipitation 0.00 in 0.03 in 0.41 in (2010)
Month to date precipitation 0.04 0.37  
Year to date precipitation 0.62 1.15  
Sea Level Pressure  
Sea Level Pressure 30.13 in    
Wind  
Wind Speed 16 mph (West)    
Max Wind Speed 43 mph    
Max Gust Speed 53 mph    
Visibility 10 miles    
Events      
T = Trace of Precipitation, MM = Missing Value Source: NWS Daily Summary

Daily Weather History Graph

Daily Weather History Graph

Search for Another Location

Airport:

Trip Planner

Search our weather history database for the weather conditions in past years. The results will help you decide how hot, cold, wet, or windy it might be!

Date:

Astronomy

Mar. 19, 2013 Rise Set
Actual Time 7:13 AM MDT 7:20 PM MDT
Civil Twilight 6:45 AM MDT 7:48 PM MDT
Nautical Twilight 6:13 AM MDT 8:20 PM MDT
Astronomical Twilight 5:40 AM MDT 8:53 PM MDT
Moon 12:01 PM MDT 2:14 AM MDT
Length of Visible Light 13h 02m
Length of Day
12h 06m
Waxing Crescent, 50% of the Moon is Illuminated
Mar 19
Waxing Crescent
Mar 27
Full
Apr 2
Last Quarter
Apr 10
New
Apr 18
First Quarter

Hourly Weather History & Observations

Time (MDT) Temp. Windchill Dew Point Humidity Pressure Visibility Wind Dir Wind Speed Gust Speed Precip Events Conditions
12:53 AM 30.0 °F 13.8 °F 10.9 °F 45% 29.88 in 10.0 mi West 35.7 mph 51.8 mph N/A   Clear
1:53 AM 28.9 °F 13.0 °F 9.0 °F 43% 29.92 in 10.0 mi West 32.2 mph 44.9 mph N/A   Clear
2:53 AM 27.0 °F 11.9 °F 6.1 °F 41% 29.95 in 10.0 mi West 25.3 mph 43.7 mph N/A   Clear
3:53 AM 24.1 °F 7.4 °F 5.0 °F 44% 30.00 in 10.0 mi WNW 27.6 mph 36.8 mph N/A   Clear
4:53 AM 21.9 °F 6.9 °F 6.1 °F 51% 30.03 in 10.0 mi WNW 19.6 mph 28.8 mph N/A   Clear
5:53 AM 12.9 °F 5.2 °F 3.0 °F 65% 30.13 in 10.0 mi Variable 4.6 mph - N/A   Clear
6:53 AM 15.1 °F 5.2 °F 5.0 °F 64% 30.15 in 10.0 mi SSE 6.9 mph - N/A   Clear
7:53 AM 19.9 °F 6.2 °F 5.0 °F 52% 30.15 in 10.0 mi WSW 15.0 mph - N/A   Clear
8:53 AM 25.0 °F 10.6 °F 5.0 °F 43% 30.14 in 10.0 mi WSW 20.7 mph 26.5 mph N/A   Clear
9:53 AM 30.0 °F 17.5 °F 1.9 °F 30% 30.15 in 10.0 mi West 19.6 mph 31.1 mph N/A   Clear
10:53 AM 34.0 °F 22.4 °F -0.0 °F 24% 30.15 in 10.0 mi West 20.7 mph 26.5 mph N/A   Clear
11:53 AM 36.0 °F 24.7 °F -2.9 °F 19% 30.14 in 10.0 mi West 21.9 mph 29.9 mph N/A   Clear
12:53 PM 37.9 °F 27.9 °F -8.0 °F 14% 30.14 in 10.0 mi West 19.6 mph 33.4 mph N/A   Clear
1:53 PM 39.9 °F 30.5 °F -9.0 °F 12% 30.13 in 10.0 mi WSW 19.6 mph 29.9 mph N/A   Clear
2:53 PM 42.1 °F 33.1 °F -9.0 °F 11% 30.12 in 10.0 mi West 20.7 mph 25.3 mph N/A   Clear
3:53 PM 43.0 °F 34.8 °F -11.9 °F 10% 30.12 in 10.0 mi West 18.4 mph 28.8 mph N/A   Clear
4:53 PM 43.0 °F 33.3 °F -16.1 °F 8% 30.14 in 10.0 mi West 25.3 mph 32.2 mph N/A   Clear
5:53 PM 42.1 °F 32.8 °F -16.1 °F 8% 30.21 in 10.0 mi West 21.9 mph 31.1 mph N/A   Clear
6:53 PM 39.0 °F 29.9 °F -15.0 °F 10% 30.23 in 10.0 mi West 17.3 mph 25.3 mph N/A   Clear
7:53 PM 35.1 °F 26.4 °F -13.0 °F 12% 30.23 in 10.0 mi WNW 12.7 mph - N/A   Clear
8:53 PM 28.0 °F 20.8 °F -11.0 °F 18% 30.26 in 10.0 mi NW 6.9 mph - N/A   Clear
9:53 PM 19.0 °F 13.9 °F -9.9 °F 27% 30.30 in 10.0 mi NNW 3.5 mph - N/A   Clear
10:53 PM 24.1 °F - -9.0 °F 23% 30.27 in 10.0 mi Calm Calm - N/A   Clear
11:53 PM 19.0 °F - -9.0 °F 29% 30.28 in 10.0 mi Calm Calm - N/A   Clear